Вернуться в каталог

STARLINK-37371

АктивенСвязьVLEO
NORAD 68977·PAYLOAD·🇺🇸 United States

Запущен May 1, 2026 с Cape Canaveral Space Force Station

Loading…

Ближайшие Пролёты (ближайшие 24 часа)

TLE

СвежийSource: CelesTrak SupGP

Эпоха: Sep 14, 2026, 23:32 UTC

1 68977C 26099AC  26257.98104167  .00026299  00000+0  77721-3 0  2572
2 68977  53.1566 101.2652 0001282  84.1230 197.0276 15.34369729    15

Отслеживайте STARLINK-37371 в реальном времени с AllMySat

Download on the App Store